STARLINK-1008

Last updated on Thu Dec 12 2019 00:02:03 GMT+0000 (Coordinated Universal Time)

1 44714U 19074B 19345.25001157 -.00009889 00000-0 -65932-4 0 9999 2 44714 53.0097 23.1650 0001613 25.5757 300.4383 15.73257347 4688
UTC large
Height (km)
Speed (km/s)
/
Latitude / Longitude
Inclination (degrees)
Orbital Period (minutes)
Azimuth
Elevation
Range (km)
Doppler Factor

Next 0 passes for location: London (51.5072 / 0.1276)

Sorry there are no passes over London.